This demonstration page uses our WeatherBlox Daily Observations layout. Learn more.

41.86663, -103.66717

Hourly Observations for December 27, 2019

Temp ( °F °C ) Dew Point ( °F °C ) Humidity (%) Winds ( mph kmh ) Pressure ( in mb ) Visibility ( mi km ) Precip ( " mm )
12:53 am 00:53 Clear 22 -5.6 21 -6.1 96 96 E 6 9 30.15 1021 10 16.0934 0 0
1:53 am 01:53 Clear 23 -5 22 -5.6 96 96 E 7 11 30.15 1021 10 16.0934 0 0
2:53 am 02:53 Clear 25 -3.9 23 -5 92 92 ENE 6 9 30.14 1021 10 16.0934 0 0
3:53 am 03:53 Clear 21 -6.1 20 -6.7 96 96 Calm 30.14 1021 10 16.0934 0 0
4:53 am 04:53 Clear 22 -5.6 20 -6.7 92 92 Calm 30.14 1021 10 16.0934 0 0
5:53 am 05:53 Clear 22 -5.6 21 -6.1 96 96 Calm 30.14 1021 9 14.48406 0.001 0.001
6:53 am 06:53 Clear 21 -6.1 20 -6.7 96 96 Calm 30.15 1021 7 11.26538 0 0
7:01 am 07:01 Partly Cloudy 22 -5.6 20 -6.7 92 92 ESE 5 7 30.23 1024 7 11.26538 0 0
7:09 am 07:09 Mostly Cloudy with Scattered Snow Showers 20 -6.7 19 -7.2 96 96 SE 5 7 30.25 1024 7 11.26538 0.001 0.001
7:39 am 07:39 Cloudy with Mist and Fog 22 -5.6 21 -6.1 96 96 E 5 7 30.23 1024 1.75 2.816345 0.001 0.001
7:53 am 07:53 Cloudy with Mist and Fog 23 -5 22 -5.6 96 96 E 3 6 30.14 1021 1 1.60934 0.001 0.001
8:01 am 08:01 Cloudy with Mist and Fog 23 -5 23 -5 100 100 E 6 9 30.22 1023 2.5 4.02335 0 0
8:08 am 08:08 Cloudy with Mist and Fog 25 -4 23 -5 93 93 E 7 11 30.2 1023 6 9.65604 0 0
8:53 am 08:53 Cloudy 29 -1.7 28 -2.2 96 96 Calm 30.11 1020 8 12.87472 0 0
9:08 am 09:08 Cloudy 30 -1 28 -2 93 93 Calm 30.16 1021 7 11.26538 0 0
9:53 am 09:53 Cloudy 31 -0.6 29 -1.7 92 92 SE 5 7 30.1 1019 7 11.26538 0 0
10:29 am 10:29 Cloudy with Mist and Fog 32 0 30 -1.1 92 92 E 6 9 30.1 1019 6 9.65604 0.001 0.001
10:40 am 10:40 Cloudy 32 0 30 -1.1 92 92 ESE 6 9 30.1 1019 7 11.26538 0.001 0.001
10:48 am 10:48 Cloudy 32 0 30 -1 93 93 ESE 7 11 30.09 1019 7 11.26538 0.001 0.001
10:53 am 10:53 Cloudy 32 0 30 -1.1 92 92 ESE 7 11 30.06 1018 7 11.26538 0.001 0.001
11:08 am 11:08 Cloudy 32 0 31 -0.6 96 96 ESE 7 11 30.08 1019 7 11.26538 0 0
11:16 am 11:16 Cloudy with Light Snow 32 0 31 -0.6 96 96 SE 8 13 30.07 1018 7 11.26538 0.001 0.001
11:53 am 11:53 Cloudy with Light Snow 33 0.6 31 -0.6 92 92 ESE 10 17 30.03 1017 6 9.65604 0.001 0.001
12:53 pm 12:53 Cloudy 34 1.1 32 0 92 92 E 6 9 29.98 1015 8 12.87472 0.001 0.001
1:01 pm 13:01 Cloudy 34 1.1 32 0 92 92 SE 7 11 29.99 1016 7 11.26538 0 0
1:53 pm 13:53 Cloudy 35 1.7 31 -0.6 85 85 SE 5 7 29.94 1014 10 16.0934 0 0
2:53 pm 14:53 Cloudy with Light Snow 36 2.2 29 -1.7 76 76 S 6 9 29.93 1013 9 14.48406 0.001 0.001
3:53 pm 15:53 Cloudy 35 1.7 31 -0.6 85 85 E 3 6 29.93 1014 10 16.0934 0.001 0.001
4:53 pm 16:53 Cloudy 35 1.7 31 -0.6 85 85 NE 5 7 29.91 1013 10 16.0934 0 0
5:53 pm 17:53 Cloudy 34 1.1 31 -0.6 89 89 ESE 9 15 29.92 1013 10 16.0934 0 0
6:53 pm 18:53 Cloudy 34 1.1 31 -0.6 89 89 E 10 17 29.9 1013 10 16.0934 0.001 0.001
7:53 pm 19:53 Cloudy 33 0.6 32 0 96 96 ESE 9 15 29.88 1012 7 11.26538 0 0
8:16 pm 20:16 Cloudy with Mist and Fog 32 0 32 0 100 100 ESE 8 13 29.9 1013 6 9.65604 0 0
8:53 pm 20:53 Cloudy with Light Snow 32 0 31 -0.6 96 96 ESE 8 13 29.85 1011 3 4.82802 0.001 0.001
9:02 pm 21:02 Cloudy with Light Snow 32 0 31 -0.6 96 96 ESE 9 15 29.89 1012 2.5 4.02335 0.001 0.001
9:07 pm 21:07 Cloudy with Light Snow 32 0 31 -0.6 96 96 ESE 12 19 29.89 1012 2.5 4.02335 0.001 0.001
9:29 pm 21:29 Cloudy with Light Snow 32 0 31 -0.6 96 96 ESE 9 15 29.88 1012 3 4.82802 0.001 0.001
9:53 pm 21:53 Cloudy with Light Snow 32 0 31 -0.6 96 96 ESE 8 13 29.83 1010 4 6.43736 0.001 0.001
10:09 pm 22:09 Cloudy with Light Snow 32 0 31 -0.6 96 96 ESE 9 15 29.88 1012 2.5 4.02335 0.001 0.001
10:53 pm 22:53 Cloudy with Light Snow 32 0 31 -0.6 96 96 ESE 8 13 29.82 1010 2.5 4.02335 0.01 0.254
11:21 pm 23:21 Cloudy with Light Snow 32 0 31 -0.6 96 96 ESE 8 13 29.87 1012 3 4.82802 0.001 0.001
11:28 pm 23:28 Cloudy with Light Snow 32 0 32 0 100 100 ESE 7 11 29.87 1012 2 3.21868 0 0
11:49 pm 23:49 Cloudy with Light Snow 32 0 32 0 100 100 ESE 5 7 29.86 1011 4 6.43736 0.01 0.254
11:53 pm 23:53 Cloudy with Light Snow 32 0 32 0 100 100 ESE 5 7 29.8 1009 5 8.0467 0.01 0.254

Powered by AerisWeather